Location: Bluff Heights
(33.7692°N, 118.1592°W)
Time: 04:05:33
(UTC+00:00)

Explorer 7 - All Passes

Search period start: 06 August 2021 00:00
Search period end: 16 August 2021 00:00
Orbit: 484 x 676 km, 50.3° (Epoch: 05 August)

Date Brightness Start Highest point End Pass type
(mag) Time Alt. Az. Time Alt. Az. Time Alt. Az.
06 Aug - 08:38:10 10° SSE 08:39:43 12° SE 08:41:15 10° ESE night (unlit)
06 Aug - 10:16:01 10° WSW 10:19:43 62° NW 10:23:27 10° NE visible
06 Aug - 11:59:08 10° NW 12:00:48 12° NNW 12:02:28 10° N visible
06 Aug - 15:22:54 10° N 15:24:53 13° NNE 15:26:54 10° NE daylight
06 Aug - 17:01:55 10° NW 17:05:59 58° NE 17:10:19 10° ESE daylight
06 Aug - 18:43:18 10° W 18:46:12 18° SW 18:49:14 10° S daylight
07 Aug - 08:40:50 10° S 08:43:49 23° SE 08:46:49 10° ENE night (unlit)
07 Aug - 10:20:38 10° WSW 10:24:05 35° NW 10:27:35 10° NNE visible
07 Aug - 15:26:40 10° NNW 15:29:28 18° NNE 15:32:22 10° ENE daylight
07 Aug - 17:06:09 10° NW 17:10:18 83° SW 17:14:43 10° SE daylight
08 Aug - 08:44:26 10° SSW 08:48:01 42° SE 08:51:34 10° ENE visible
08 Aug - 10:25:32 10° W 10:28:33 22° NNW 10:31:35 10° NNE visible
08 Aug - 15:30:36 10° NNW 15:33:58 25° NNE 15:37:31 10° E daylight
08 Aug - 17:10:35 10° WNW 17:14:33 46° SW 17:18:46 10° SSE daylight
09 Aug - 08:48:29 10° SW 08:52:15 82° SE 08:56:00 10° NE visible
09 Aug - 10:30:45 10° WNW 10:33:05 16° NNW 10:35:26 10° NNE visible
09 Aug - 13:56:37 10° N 13:57:06 10° NNE 13:57:34 10° NNE daylight
09 Aug - 15:34:37 10° NW 15:38:25 39° NE 15:42:23 10° ESE daylight
09 Aug - 17:15:16 10° WNW 17:18:45 26° SW 17:22:25 10° S daylight
10 Aug - 07:14:21 10° SSE 07:16:29 14° SE 07:18:35 10° E night (unlit)
10 Aug - 08:52:52 10° WSW 08:56:34 53° NW 09:00:15 10° NE visible
10 Aug - 10:36:26 10° NW 10:37:42 11° NNW 10:38:58 10° N visible
10 Aug - 13:59:44 10° N 14:01:45 13° NNE 14:03:47 10° NE daylight
10 Aug - 15:38:46 10° NW 15:42:45 65° NE 15:46:59 10° ESE daylight
10 Aug - 17:20:33 10° W 17:22:55 15° SW 17:25:22 10° SSW daylight
11 Aug - 07:17:22 10° S 07:20:38 26° SE 07:23:49 10° ENE night (unlit)
11 Aug - 08:57:33 10° W 09:00:57 31° NW 09:04:21 10° NNE visible
11 Aug - 14:03:30 10° NNW 14:06:18 18° NNE 14:09:12 10° ENE daylight
11 Aug - 15:43:03 10° NW 15:47:03 72° SW 15:51:17 10° SE daylight
12 Aug - 07:21:06 10° SSW 07:24:49 50° SE 07:28:28 10° ENE night (unlit)
12 Aug - 09:02:31 10° W 09:05:25 21° NNW 09:08:18 10° NNE visible
12 Aug - 14:07:25 10° NNW 14:10:47 27° NNE 14:14:17 10° E daylight
12 Aug - 15:47:32 10° WNW 15:51:17 39° SW 15:55:15 10° SSE daylight
13 Aug - 07:25:14 10° SW 07:29:05 86° NW 07:32:50 10° NE night (unlit)
13 Aug - 09:07:49 10° WNW 09:09:58 14° NNW 09:12:06 10° N visible
13 Aug - 12:33:19 10° N 12:33:57 10° NNE 12:34:37 10° NNE visible
13 Aug - 14:11:28 10° NW 14:15:12 42° NE 14:19:07 10° ESE daylight
13 Aug - 15:52:20 10° W 15:55:29 22° SW 15:58:45 10° S daylight
14 Aug - 05:50:38 10° S 05:53:14 17° SE 05:55:48 10° E night (unlit)
14 Aug - 07:29:41 10° WSW 07:33:24 47° NW 07:37:03 10° NE night (unlit)
14 Aug - 09:13:45 10° NNW 09:14:35 11° NNW 09:15:24 10° N visible
14 Aug - 12:36:32 10° N 12:38:35 14° NNE 12:40:41 10° ENE visible
14 Aug - 14:15:39 10° NW 14:19:32 74° NE 14:23:39 10° SE daylight
14 Aug - 15:57:59 10° WSW 15:59:38 12° SW 16:01:18 10° SSW daylight
15 Aug - 05:53:54 10° SSW 05:57:24 31° SE 06:00:48 10° ENE night (unlit)
15 Aug - 07:34:26 10° W 07:37:49 28° NNW 07:41:07 10° NNE night (unlit)
15 Aug - 12:40:18 10° NNW 12:43:08 19° NNE 12:46:03 10° ENE visible
15 Aug - 14:19:58 10° NW 14:23:49 61° SW 14:27:52 10° SE daylight
